Flag Weather past 2 weeks in Zeitz, Saxony-Anhalt, Germany

Now
52 °F

Passing clouds.


Feels Like: 49 °F
Forecast: 36 / 49 °F
Wind: 8 mph from South

Location: Gera-Leumnitz

Current Time: Nov 23, 2014 at 2:35:49 PM

Latest Report: Nov 23, 2014 at 2:00 PM


Visibility: 47 mi

Pressure: 30.19 "Hg

Humidity: 65%

Dew point: 40 °F

Location of ZeitzLocation

Historic Weather in Zeitz — Graph

°F

Zeitz temperature yesterday

Maximum temperature yesterday: 45 °F (at 3:00 PM)
Minimum temperature yesterday: 31 °F (at 4:00 AM)
Average temperature yesterday: 38 °F

Past Weeks' High & Low Weather Summary

 TemperatureHumidityPressure
High56 °F (Nov 14, 2:00 PM)100% (Nov 9, 8:00 AM)30.37 "Hg (Nov 9, 8:00 AM)
Low31 °F (Nov 22, 4:00 AM)66% (Nov 8, 3:00 PM)29.54 "Hg (Nov 16, 7:00 AM)
Average42 °F92%29.94 "Hg
* Reported Nov 8 1:00 PM — Nov 23 1:00 PM, Zeitz, Weather by CustomWeather, © 2014

Note: Actual official high and low records may vary slightly from our data, if they occured in-between our weather recording intervals... More about our weather records

Advertising

Zeitz weather history for previous 24 hours

 ConditionsComfort  
Time TempWeatherWind HumidityBarometerVisibility
1:00 PM
Nov 23
51 °FPassing clouds.7 mph66%30.21 "Hg25 mi
12:00 PM49 °FSunny.8 mph70%30.24 "Hg25 mi
11:00 AM46 °FPassing clouds.9 mph73%30.26 "Hg22 mi
10:00 AM42 °FPassing clouds.7 mph77%30.27 "Hg22 mi
9:00 AM39 °FPassing clouds.3 mph82%30.27 "Hg19 mi
8:00 AM35 °FPassing clouds.3 mph90%30.27 "Hg12 mi
7:00 AM37 °FPassing clouds.3 mph87%30.24 "Hg7 mi
6:00 AM37 °FClear.6 mph87%30.22 "Hg7 mi
5:00 AM37 °FClear.8 mph87%30.23 "Hg6 mi
4:00 AM37 °FPassing clouds.7 mph87%30.23 "Hg6 mi
3:00 AM37 °FOvercast.8 mph88%30.23 "Hg6 mi
2:00 AM37 °FPassing clouds.7 mph87%30.25 "Hg6 mi
1:00 AM37 °FClear.7 mph88%30.26 "Hg5 mi
12:00 AM37 °FFog.6 mph89%30.26 "Hg4 mi
11:00 PM
Nov 22
36 °FFog.6 mph91%30.25 "Hg4 mi
10:00 PM38 °FClear.7 mph88%30.24 "Hg5 mi
9:00 PM37 °FClear.5 mph89%30.23 "Hg6 mi
8:00 PM37 °FPassing clouds.6 mph89%30.23 "Hg7 mi
7:00 PM38 °FPassing clouds.7 mph87%30.22 "Hg10 mi
6:00 PM40 °FPassing clouds.7 mph84%30.23 "Hg11 mi
5:00 PM41 °FPassing clouds.7 mph82%30.22 "Hg12 mi
4:00 PM42 °FPassing clouds.5 mph81%30.22 "Hg14 mi
3:00 PM45 °FScattered clouds.5 mph75%30.20 "Hg16 mi
2:00 PM44 °FOvercast.5 mph76%30.21 "Hg16 mi
Weather by CustomWeather, © 2014

See weather overviewHow to use our weather pages